Location: Utrecht
(52.0907°N, 5.1214°E)
Time: 02:27:48
(UTC+02:00)

VELOX 1 - Pass Details

Date: 03 July 2022
Orbit: 624 x 639 km, 98.4° (Epoch: 07 August)

Event Time Altitude Azimuth Distance (km) Brightness Sun altitude
Rises 03:56:03 0° 98° (E) 2,938 ? -9.6°
Maximum altitude 04:01:00 10° 49° (NE) 2,025 ? -9.2°
Drops below altitude 10° 04:01:34 10° 42° (NE) 2,041 ? -9.1°
Sets 04:05:59 0° 0° (N) 2,959 ? -8.8°
